Location: DARK SKY Beskydy - Park tmavé oblohy, www.darkskybeskydy.cz
(49.4926°N, 18.5016°E)
Time: 03:26:44
(UTC+02:00)

A-11 Canister half - Pass Details

Date: 27 February 2024
Orbit: 1513 x 1686 km, 47.2° (Epoch: 24 April)

Event Time Altitude Azimuth Distance (km) Brightness Sun altitude
Rises 04:48:28 0° 274° (W) 4,931 - -17.9°
Reaches altitude 10° 04:51:40 10° 273° (W) 3,931 - -17.4°
Exits shadow 04:54:30 22° 272° (W) 3,073 9.9 -16.9°
Maximum altitude 05:01:43 76° 191° (S) 1,683 9.1 -15.8°
Drops below altitude 10° 05:11:25 10° 108° (ESE) 3,803 12.2 -14.2°
Sets 05:14:28 0° 107° (ESE) 4,765 13.0 -13.7°
